Regional Weather Roundup
Issued by NWS

Home | Current Version | Previous Version | Graphics & Text | Print | Product List | Glossary On
Versions: 1 2 3 4 5 6 7 8 9 10 11 12 13 14 15 16 17 18 19 20 21 22 23 24 25 26 27 28 29 30 31 32 33 34 35 36 37 38 39 40 41 42 43 44 45 46 47 48 49 50
000
ASUS43 KMKX 021811
RWRWI

WISCONSIN REGIONAL WEATHER ROUNDUP
NATIONAL WEATHER SERVICE MILWAUKEE/SULLIVAN WI
100 PM CDT SUN AUG 02 2015

NOTE: "FAIR" INDICATES FEW OR NO CLOUDS BELOW 12,000 FEET WITH NO
SIGNIFICANT WEATHER AND/OR OBSTRUCTIONS TO VISIBILITY.

WIZ001-002-006>008-014>016-023>028-021900-
NORTHWEST WISCONSIN

CITY           SKY/WX    TMP DP  RH WIND       PRES   REMARKS
SUPERIOR ARPT  CLOUDY    73  62  68 W9        29.66R
6HR MIN TEMP:  64; 6HR MAX TEMP:  74;

ASHLAND        PTSUNNY   74  61  63 W6        29.63F
6HR MIN TEMP:  65; 6HR MAX TEMP:  75; 6HR PCP:  0.05;

HAYWARD        PTSUNNY   76  60  57 VRB7      29.66R
6HR MIN TEMP:  66; 6HR MAX TEMP:  76; 6HR PCP:  0.14;

SIREN          CLOUDY    75  59  56 N10       29.68R
6HR MIN TEMP:  63; 6HR MAX TEMP:  78; 6HR PCP:  0.01;

CUMBERLAND     CLOUDY    72  64  78 NW10      29.66F
RICE LAKE      LGT RAIN  72  66  81 W8        29.66S
6HR MIN TEMP:  65; 6HR MAX TEMP:  75;

CHETEK         CLOUDY    74  67  81 W8        29.64R
6HR MIN TEMP:  67; 6HR MAX TEMP:  76;

LADYSMITH      CLOUDY    74  66  76 NW9       29.65R
6HR MIN TEMP:  67; 6HR MAX TEMP:  78;

EAU CLAIRE     PTSUNNY   83  68  60 W17       29.61R HX  86
6HR MIN TEMP:  67; 6HR MAX TEMP:  85;

MENOMONIE      MOSUNNY   83  66  56 W14G21    29.62R HX  85
6HR MIN TEMP:  67; 6HR MAX TEMP:  84;

NEW RICHMOND   CLOUDY    74  65  73 NW13G18   29.67R
6HR MIN TEMP:  67; 6HR MAX TEMP:  80;

OSCEOLA        DRIZZLE   74  67  79 NW10      29.69R
6HR MIN TEMP:  67; 6HR MAX TEMP:  78;

$$

WIZ003>005-009-010-017-018-021900-
NORTH CENTRAL WISCONSIN

CITY           SKY/WX    TMP DP  RH WIND       PRES   REMARKS
MANITOWISH WTR CLOUDY    69  65  85 W5        29.65R
6HR MIN TEMP:  63; 6HR MAX TEMP:  69; 6HR PCP:  0.08;

ARBOR VITAE    CLOUDY    72  67  85 SW3       29.63R
6HR MIN TEMP:  64; 6HR MAX TEMP:  72; 6HR PCP:  0.22;

WOODRUFF       CLOUDY    72  67  85 SW3       29.63R
6HR MIN TEMP:  64; 6HR MAX TEMP:  72; 6HR PCP:  0.22;

RHINELANDER    CLOUDY    64  60  87 E5        29.63F
6HR MIN TEMP:  62; 6HR MAX TEMP:  71; 6HR PCP:  0.45;

EAGLE RIVER    CLOUDY    60  58  96 S6        29.63F
6HR MIN TEMP:  60; 6HR MAX TEMP:  71; 6HR PCP:  0.01;

LAND O LAKES   CLOUDY    64  61  88 CALM      29.64R
6HR MIN TEMP:  63; 6HR MAX TEMP:  71; 6HR PCP:  0.07;

PHILLIPS       CLOUDY    67  62  86 CALM      29.65R
6HR MIN TEMP:  61; 6HR MAX TEMP:  70; 6HR PCP:  0.21;

TOMAHAWK       CLOUDY    69  60  73 N3        29.65F
6HR MIN TEMP:  62; 6HR MAX TEMP:  74;

MEDFORD        CLOUDY    77  68  75 NW9       29.62F
6HR MIN TEMP:  66; 6HR MAX TEMP:  77;

MERRILL        NOT AVBL
$$

WIZ029-030-035-036-043>047-021900-
CENTRAL WISCONSIN

CITY           SKY/WX    TMP DP  RH WIND       PRES   REMARKS
WAUSAU         PTSUNNY   84  67  56 NW13      29.59R HX  86
6HR MIN TEMP:  69; 6HR MAX TEMP:  84; 6HR PCP:  0.01;

MOSINEE        MOSUNNY   86  68  54 SW12      29.60F HX  89
MARSHFIELD     PTSUNNY   86  66  51 W20       29.59F HX  88
6HR MIN TEMP:  70; 6HR MAX TEMP:  87;

STEVENS POINT  MOSUNNY   86  65  49 SW18G29   29.58F HX  88
6HR MIN TEMP:  68; 6HR MAX TEMP:  86;

WAUPACA        MOSUNNY   92  64  38 SW17G23   29.56F HX  93
6HR MIN TEMP:  69; 6HR MAX TEMP:  92;

WAUTOMA        SUNNY     93  66  40 SW20      29.59F HX  95
6HR MIN TEMP:  70; 6HR MAX TEMP:  93;

WISC RAPIDS    MOSUNNY   90  64  42 SW20G26   29.60F HX  91
6HR MIN TEMP:  73; 6HR MAX TEMP:  91;

CAMP DOUGLAS   PTSUNNY   90  70  51 SW18G37   29.61F HX  95
$$

WIZ011>013-019>022-031-037>040-048>050-021900-
NORTHEAST WISCONSIN

CITY           SKY/WX    TMP DP  RH WIND       PRES   REMARKS
ANTIGO         CLOUDY    75  67  76 W7        29.63R
SHAWANO          N/A     87  68  53 SW10      29.56F HX  90
6HR MIN TEMP:  68; 6HR MAX TEMP:  87; 6HR PCP:  0.11;

OCONTO         CLOUDY    78  72  80 SE3       29.57F HX  81
6HR MIN TEMP:  68; 6HR MAX TEMP:  80;

STURGEON BAY   CLOUDY    73  66  78 N5        29.63S
6HR MIN TEMP:  72; 6HR MAX TEMP:  79;

GREEN BAY      PTSUNNY   86  71  60 S13G23    29.58F HX  91
6HR MIN TEMP:  71; 6HR MAX TEMP:  86;

MANITOWOC      MOSUNNY   87  69  54 MISG      29.60F HX  91
6HR MIN TEMP:  73; 6HR MAX TEMP:  87;

APPLETON       PTSUNNY   86  66  51 SW17G24   29.61F HX  88
CLINTONVILLE   MOSUNNY   88  63  42 SW18      29.56F HX  88
OSHKOSH        SUNNY     88  69  53 SW22G29   29.59F HX  92
6HR MIN TEMP:  69; 6HR MAX TEMP:  89;

$$

WIZ032>034-041-042-053>061-021900-
SOUTHWEST WISCONSIN

CITY           SKY/WX    TMP DP  RH WIND       PRES   REMARKS
LA CROSSE      MOSUNNY   90  69  50 SW18G26   29.61F HX  94
6HR MIN TEMP:  74; 6HR MAX TEMP:  90;

SPARTA         MOSUNNY   89  65  44 SW13G24   29.63F HX  90
6HR MIN TEMP:  73; 6HR MAX TEMP:  89;

VIROQUA        MOSUNNY   85  69  59 SW12G23   29.68F HX  89
6HR MIN TEMP:  72; 6HR MAX TEMP:  85;

BOSCOBEL       SUNNY     91  68  46 SW17G30   29.67F HX  95
6HR MIN TEMP:  73; 6HR MAX TEMP:  91;

PRAIRIE DU CHI SUNNY     88  65  47 SW15G25   29.68F HX  90
6HR MIN TEMP:  74; 6HR MAX TEMP:  88;

PLATTEVILLE    SUNNY     86  68  55 SW20G25   29.74F HX  89
6HR MIN TEMP:  71; 6HR MAX TEMP:  86;

$$

WIZ056-057-062-063-064-067-068-021900-
SOUTH CENTRAL WISCONSIN

CITY           SKY/WX    TMP DP  RH WIND       PRES   REMARKS
REEDSBURG      SUNNY     87  69  55 SW16G26   29.65F HX  92
6HR MIN TEMP:  73; 6HR MAX TEMP:  88;

BARABOO/DELLS  SUNNY     88  66  47 SW20G25   29.65F HX  90
6HR MIN TEMP:  73; 6HR MAX TEMP:  88;

LONE ROCK      SUNNY     89  68  49 SW13G22   29.68F HX  93
6HR MIN TEMP:  74; 6HR MAX TEMP:  89;

MINERAL POINT  SUNNY     86  66  51 SW17G24   29.73F HX  88
MADISON        MOSUNNY   86  69  56 SW13G20   29.68F HX  90
6HR MIN TEMP:  74; 6HR MAX TEMP:  86;

MIDDLETON      SUNNY     88  65  46 SW14G23   29.69F HX  90
6HR MIN TEMP:  74; 6HR MAX TEMP:  88;

WATERTOWN      MOSUNNY   86  73  64 SW15G21   29.68F HX  92
6HR MIN TEMP:  72; 6HR MAX TEMP:  86;

MONROE         MOSUNNY   86  66  51 SW24      29.75F HX  88
JANESVILLE     SUNNY     90  64  43 W23G29    29.74F HX  91
$$

WIZ051-052-058>065-066-070>072-021900-
SOUTHEAST WISCONSIN

CITY           SKY/WX    TMP DP  RH WIND       PRES   REMARKS
MILWAUKEE      MOSUNNY   90  66  45 SW22G31   29.70F HX  92
6HR MIN TEMP:  74; 6HR MAX TEMP:  90;

WAUKESHA       SUNNY     88  66  48 SW14G29   29.72F HX  90
MILWAUKEE/TIMM SUNNY     88  64  45 W17G31    29.69F HX  89
RACINE         MOSUNNY   91  67  44 SW17G26   29.72F HX  94
6HR MIN TEMP:  74; 6HR MAX TEMP:  91;

BURLINGTON     SUNNY     86  66  49 SW18      29.73F HX  88
6HR MIN TEMP:  68; 6HR MAX TEMP:  87;

KENOSHA        MOSUNNY   90  68  48 W22G30    29.73F HX  94
6HR MIN TEMP:  73; 6HR MAX TEMP:  90;

FOND DU LAC    SUNNY     87  70  56 SW16G28   29.62F HX  92
6HR MIN TEMP:  73; 6HR MAX TEMP:  88; 6HR PCP: TRACE;

SHEBOYGAN      MOSUNNY   89  69  51 SW21G30   29.63F HX  93
6HR MIN TEMP:  69; 6HR MAX TEMP:  89; 6HR PCP: TRACE;

WEST BEND      SUNNY     88  66  48 SW13G22   29.66F HX  90
JUNEAU         SUNNY     84  71  63 SW21G28   29.68F HX  88
6HR MIN TEMP:  70; 6HR MAX TEMP:  84;

$$

LSZ147-162-021900-
LAKE SUPERIOR

STATION/POSITION TIME  TEMP    WIND        PRES    WAVE
                       AIR SEA DIR/SP/G            HT/PER
                 (UTC) (F)     (DEG/KT/KT) (MB)    (FT/S)
W MID LAKE BUOY  1750   58 55  270/ 10/ 12 1002.1R   1
DEVILS ISLAND    1800   63     250/ 11/ 14 1003.2R
PORT WING        1740   69     260/  7/ 12 1004.1R
SAXON HARBOR     1700   67                 1003.0R
$$

LMZ867-665-643>646-021900-
LAKE MICHIGAN

STATION/POSITION TIME  TEMP    WIND        PRES    WAVE
                       AIR SEA DIR/SP/G            HT/PER
                 (UTC) (F)     (DEG/KT/KT) (MB)    (FT/S)
CHAMBERS ISLAND  1700   70     320/ 10/ 13 1004.4R



USA.gov is the U.S. government's official web portal to all federal, state and local government web resources and services.